Location: Haieshausen
(51.8387°N, 9.9720°E)
Time: 03:50:26
(UTC+00:00)

H-2A R/B - Pass Details

Date: 14 July 2020
Orbit: 577 x 656 km, 98.5° (Epoch: 10 August)

Event Time Altitude Azimuth Distance (km) Brightness Sun altitude
Rises 02:04:47 0° 149° (SSE) 2,922 5.3 -8.8°
Reaches altitude 10° 02:07:02 10° 144° (SE) 2,007 4.5 -8.5°
Maximum altitude 02:11:16 51° 69° (ENE) 781 3.0 -8.1°
Drops below altitude 10° 02:15:26 10° 353° (N) 1,974 5.3 -7.7°
Sets 02:17:37 0° 349° (N) 2,870 6.1 -7.5°
